Weather in Lugovoy

Russia / Khanty-Mansi Autonomous Okrug — Yugra     59°43′22″N   65°53′00″E
temp.,
°C
wind,
m/s
gust,
m/s
humid.,
%
clouds,
%
prec.,
mm/h
press.,
hPa
HPBL,
m
29 november, mon
mon2923:00−5ssw4128298 0.0 1018367
02:00−4ssw51485100 0.0 1017452
05:00−3ssw5157979 0.0 1015535
08:00−4sw5148244 0.0 1014484
11:00−4sw51488100 0.0 1014506
14:00−2sw51389100 0.0 1014555
17:00−2sw51392100 0.0 1014465
20:00−2wsw4129341 0.0 1014448
30 november, tue
tue3023:00−2sw4129263 0.0 1014416
02:00−2wsw41294100 0.0 1015361
05:00−3sw399570 0.0 1015228
08:00−4sw389784 0.0 1016154
11:00−5ssw119897 0.0 101629
14:00−3se1297100 0.0 101562
17:00−1se3898100 0.4 1014278
20:00+1sse41293100 0.3 1011440
1 december, wed
wed123:000sse61484100 0.3 1008525
02:00−1sse61585100 0.1 1005611
05:00−1s61792100 0.3 1003816
08:00+1ssw51490100 0.1 1003690
11:00+2ssw5139483 0.1 1004490
14:00+1ssw4129596 0.0 1004416
17:00+1s41298100 0.0 1004538
20:00+1s41096100 0.0 1004474
2 december, thu
thu223:00+1sse51392100 0.0 1002512
02:00+1sse61684100 0.1 999609
05:00+1s61790100 0.9 996754
08:00+1s51584100 0.0 994711
11:00+1s51487100 0.0 994775
14:00+1ssw51396100 0.1 993708
17:00+1ssw51398100 0.1 993571
20:00+1sw51298100 0.1 993751
3 december, fri
fri323:000wsw6118597 0.1 994856
02:00−2wsw6128478 0.0 995788
05:00−4wsw6128498 0.0 996837
08:00−4wsw61284100 0.0 997934
11:00−4wsw61281100 0.0 9991007
14:00−5wsw6127798 0.0 1000983
17:00−6w6127998 0.0 1003915
20:00−6wsw5128113 0.0 1005783